327P/Van Ness (2022)

Japanese version
Home page
Updated on June 26, 2022

---------------------------------------------------------------------

* Profile

* Pictures

* Orbital Elements

Epoch 2022 Sept. 18.0 TT = JDT 2459840.5
T 2022 Sept. 2.40876 TT                                 MPCW
q   1.5560663            (2000.0)            P               Q
n   0.14651429     Peri.  185.03234     +0.99807361     -0.00305406
a   3.5635490      Node   173.98488     -0.01059636     +0.97572027
e   0.5633380      Incl.   36.25119     -0.06112926     -0.21899915
P   6.73
From 89 observations 2002 Aug. 17-2015 Dec. 8, mean residual 0".6.

* Finding Charts

* Magnitudes Graph

        m1 = 12.5 + 5 log d + 20.0 log r

---------------------------------------------------------------------

The orbital elements are published on M.P.E.C. 2015-Y73.
The charts are made with StellaNavigator Ver.10 (AstroArts).
The magnitudes graphs are made with Comet for Windows.

---------------------------------------------------------------------

Copyright(C) Seiichi Yoshida (comet@aerith.net). All rights reserved.